Weather History for CYHE - April, 2013

Change the Weather History Date:

Wednesday, April 10, 2013

  Actual Average Record
Temperature  
Mean Temperature 48 °F -  
Max Temperature 53 °F 60 °F 77 °F (2004)
Min Temperature 44 °F 42 °F 33 °F (1999)
Degree Days  
Heating Degree Days 16    
Moisture  
Dew Point 45 °F    
Average Humidity 92    
Maximum Humidity 100    
Minimum Humidity 66    
Precipitation  
Precipitation 0.83 in 0.16 in - ()
Sea Level Pressure  
Sea Level Pressure 29.97 in    
Wind  
Wind Speed 7 mph ()    
Max Wind Speed 17 mph    
Max Gust Speed 28 mph    
Visibility 6.3 miles    
Events Rain    
Averages and records for this station are not official NWS values.
T = Trace of Precipitation, MM = Missing Value Source: Averaged Metar Reports

Daily Weather History Graph

Daily Weather History Graph

Search for Another Location

Airport or City:

Trip Planner

Search our weather history database for the weather conditions in past years. The results will help you decide how hot, cold, wet, or windy it might be!

Date:

Astronomy

Apr. 10, 2013 Rise Set
Actual Time 6:23 AM PDT 7:51 PM PDT
Civil Twilight 5:50 AM PDT 8:24 PM PDT
Nautical Twilight 5:10 AM PDT 9:05 PM PDT
Astronomical Twilight 4:26 AM PDT 9:49 PM PDT
Moon 6:19 AM PDT (4/10) 8:39 PM PDT (4/10)
Length of Visible Light 14h 34m
Length of Day
13h 28m
New Moon, 0% of the Moon is Illuminated
Apr 10
New Moon
Apr 18
First Quarter
Apr 25
Full
May 2
Last Quarter
May 9
New

Hourly Weather History & Observations

Time (PDT) Temp. Windchill Dew Point Humidity Pressure Visibility Wind Dir Wind Speed Gust Speed Precip Events Conditions
12:00 AM 46.4 °F 42.4 °F 44.6 °F 93% 30.15 in 4.0 mi WSW 8.1 mph - N/A Rain Light Rain
12:15 AM 46.4 °F 43.5 °F 44.6 °F 93% 30.14 in 6.0 mi WSW 5.8 mph - N/A Rain Light Rain
12:38 AM 46.4 °F 43.5 °F 44.6 °F 93% 30.13 in 8.0 mi WSW 5.8 mph - N/A Rain Light Rain
12:42 AM 46.4 °F 43.5 °F 44.6 °F 93% 30.13 in 5.0 mi WSW 5.8 mph - N/A Rain Light Rain
1:00 AM 46.4 °F 43.5 °F 44.6 °F 93% 30.13 in 4.0 mi West 5.8 mph - N/A Rain Light Rain
1:48 AM 46.4 °F 43.5 °F 44.6 °F 93% 30.10 in 2.2 mi WSW 5.8 mph - N/A Rain Light Rain
1:55 AM 46.4 °F 43.5 °F 44.6 °F 93% 30.10 in 2.2 mi WSW 5.8 mph - N/A Rain Light Rain
2:00 AM 45 °F - 44 °F 97% 30.10 in - WSW 4.6 mph - -  
2:00 AM 44.6 °F 42.2 °F 44.6 °F 100% 30.10 in 2.5 mi WSW 4.6 mph - N/A Rain Light Rain
2:02 AM 44.6 °F 42.2 °F 44.6 °F 100% 30.09 in 3.0 mi WSW 4.6 mph - N/A Rain Light Rain
2:11 AM 44.6 °F 41.4 °F 44.6 °F 100% 30.09 in 4.0 mi WSW 5.8 mph - N/A Rain Light Rain
2:20 AM 44.6 °F 41.4 °F 44.6 °F 100% 30.08 in 6.0 mi West 5.8 mph - N/A Rain Light Rain
2:27 AM 44.6 °F 41.4 °F 44.6 °F 100% 30.08 in 5.0 mi West 5.8 mph - N/A Rain Light Rain
2:56 AM 44.6 °F 40.7 °F 44.6 °F 100% 30.06 in 2.5 mi West 6.9 mph - N/A Rain Light Rain
3:00 AM 44.6 °F 40.2 °F 44.6 °F 100% 30.06 in 2.5 mi West 8.1 mph - N/A Rain Light Rain
3:30 AM 44.6 °F 41.4 °F 44.6 °F 100% 30.04 in 3.0 mi WSW 5.8 mph - N/A Rain Light Rain
3:34 AM 44.6 °F 42.2 °F 44.6 °F 100% 30.04 in 3.0 mi WSW 4.6 mph - N/A Rain Light Rain
3:54 AM 44.6 °F 40.7 °F 44.6 °F 100% 30.03 in 3.0 mi West 6.9 mph - N/A Rain Light Rain
3:55 AM 44.6 °F 40.7 °F 44.6 °F 100% 30.03 in 2.5 mi West 6.9 mph - N/A Rain Light Rain
4:00 AM 44.6 °F 40.7 °F 44.6 °F 100% 30.03 in 2.0 mi West 6.9 mph - N/A Rain Light Rain
4:31 AM 44.6 °F 41.4 °F 44.6 °F 100% 30.01 in 3.0 mi WSW 5.8 mph - N/A Rain Light Rain
4:48 AM 44.6 °F 41.4 °F 44.6 °F 100% 30.00 in 4.0 mi WSW 5.8 mph - N/A Rain Light Rain
4:52 AM 44.6 °F 42.2 °F 44.6 °F 100% 29.99 in 6.0 mi West 4.6 mph - N/A Rain Light Rain
5:00 AM 45 °F - 44 °F 94% 29.99 in - WSW 4.6 mph - -  
5:00 AM 44.6 °F 41.4 °F 44.6 °F 100% 29.99 in 9.0 mi SW 5.8 mph - N/A Rain Light Rain
5:01 AM 44.6 °F 42.2 °F 44.6 °F 100% 29.99 in 9.0 mi SW 4.6 mph - N/A   Overcast
5:12 AM 44.6 °F - 44.6 °F 100% 29.97 in 9.0 mi Variable 2.3 mph - N/A   Overcast
5:25 AM 44.6 °F - 44.6 °F 100% 29.96 in 9.0 mi Variable 2.3 mph - N/A Rain Light Rain
5:57 AM 44.6 °F 43.1 °F 42.8 °F 93% 29.94 in 9.0 mi WSW 3.5 mph - N/A Rain Light Rain
6:00 AM 44.6 °F 42.2 °F 42.8 °F 93% 29.94 in 9.0 mi WSW 4.6 mph - N/A Rain Light Rain
7:00 AM 44.6 °F 41.4 °F 44.6 °F 100% 29.91 in 9.0 mi West 5.8 mph - N/A Rain Light Rain
7:10 AM 44.6 °F 42.2 °F 44.6 °F 100% 29.89 in 9.0 mi SSW 4.6 mph - N/A Rain Light Rain
8:00 AM 45 °F - 44 °F 96% 29.87 in - SSE 2.3 mph - -  
8:00 AM 44.6 °F - 44.6 °F 100% 29.87 in 5.0 mi Variable 2.3 mph - N/A Rain Rain
8:07 AM 44.6 °F - 44.6 °F 100% 29.87 in 6.0 mi Calm Calm - N/A Rain Rain
8:20 AM 44.6 °F - 44.6 °F 100% 29.86 in 5.0 mi Calm Calm - N/A Rain Rain
9:00 AM 44.6 °F - 44.6 °F 100% 29.86 in 4.0 mi Variable 2.3 mph - N/A Rain Rain
9:08 AM 44.6 °F 42.2 °F 44.6 °F 100% 29.86 in 6.0 mi WSW 4.6 mph - N/A Rain Rain
9:14 AM 44.6 °F 41.4 °F 44.6 °F 100% 29.87 in 7.0 mi West 5.8 mph - N/A Rain Rain
9:16 AM 44.6 °F 41.4 °F 44.6 °F 100% 29.87 in 7.0 mi West 5.8 mph - N/A Rain Heavy Rain
9:20 AM 44.6 °F 41.4 °F 44.6 °F 100% 29.87 in 7.0 mi West 5.8 mph - N/A Rain Rain
9:22 AM 44.6 °F 41.4 °F 44.6 °F 100% 29.87 in 7.0 mi WSW 5.8 mph - N/A Rain Rain
9:24 AM 44.6 °F 40.7 °F 44.6 °F 100% 29.87 in 7.0 mi SW 6.9 mph - N/A Rain Heavy Rain
9:29 AM 44.6 °F 41.4 °F 44.6 °F 100% 29.87 in 7.0 mi SSW 5.8 mph - N/A Rain Rain
9:45 AM 44.6 °F 40.7 °F 44.6 °F 100% 29.87 in 7.0 mi WSW 6.9 mph - N/A Rain Rain
9:58 AM 44.6 °F 40.2 °F 44.6 °F 100% 29.88 in 7.0 mi SW 8.1 mph - N/A Rain Rain
9:59 AM 44.6 °F 40.2 °F 44.6 °F 100% 29.88 in 7.0 mi SW 8.1 mph - N/A Rain Heavy Rain
10:00 AM 44.6 °F 40.2 °F 44.6 °F 100% 29.87 in 7.0 mi SW 8.1 mph - N/A Rain Heavy Rain
10:02 AM 44.6 °F 40.2 °F 44.6 °F 100% 29.88 in 7.0 mi SW 8.1 mph - N/A Rain Rain
10:05 AM 46.4 °F 41.5 °F 44.6 °F 93% 29.88 in 6.0 mi WSW 10.4 mph - N/A Rain Heavy Rain
10:06 AM 46.4 °F 41.9 °F 44.6 °F 93% 29.88 in 5.0 mi WSW 9.2 mph - N/A Rain Heavy Rain
10:12 AM 46.4 °F 41.5 °F 44.6 °F 93% 29.88 in 5.0 mi WSW 10.4 mph - N/A Rain Heavy Rain
10:16 AM 46.4 °F 42.4 °F 44.6 °F 93% 29.88 in 6.0 mi WSW 8.1 mph - N/A Rain Heavy Rain
10:21 AM 46.4 °F 41.5 °F 44.6 °F 93% 29.88 in 5.0 mi SW 10.4 mph - N/A Rain Heavy Rain
10:32 AM 46.4 °F 41.1 °F 44.6 °F 93% 29.88 in 5.0 mi SW 11.5 mph - N/A Rain Rain
10:35 AM 46.4 °F 41.5 °F 44.6 °F 93% 29.88 in 5.0 mi SW 10.4 mph - N/A Rain Heavy Rain
10:38 AM 46.4 °F 41.9 °F 44.6 °F 93% 29.88 in 5.0 mi WSW 9.2 mph - N/A Rain Rain
10:41 AM 46.4 °F 41.1 °F 44.6 °F 93% 29.88 in 5.0 mi WSW 11.5 mph - N/A Rain Heavy Rain
10:44 AM 46.4 °F 40.7 °F 44.6 °F 93% 29.88 in 5.0 mi WSW 12.7 mph - N/A Rain Rain
10:48 AM 46.4 °F 41.1 °F 44.6 °F 93% 29.88 in 5.0 mi SW 11.5 mph - N/A Rain Heavy Rain
10:54 AM 46.4 °F 39.5 °F 44.6 °F 93% 29.87 in 5.0 mi West 17.3 mph 27.6 mph N/A Rain Rain
10:59 AM 48.2 °F - 44.6 °F 87% 29.88 in 6.0 mi WSW 13.8 mph 27.6 mph N/A Rain Rain
11:00 AM 47 °F - 46 °F 92% 29.88 in - WSW 13.8 mph - -  
11:00 AM 48.2 °F - 44.6 °F 87% 29.88 in 6.0 mi WSW 11.5 mph 27.6 mph N/A Rain Rain
11:04 AM 48.2 °F - 44.6 °F 87% 29.88 in 8.0 mi West 11.5 mph 26.5 mph N/A Rain Heavy Rain
11:16 AM 48.2 °F - 44.6 °F 87% 29.89 in 8.0 mi West 11.5 mph - N/A Rain Rain
11:26 AM 48.2 °F - 44.6 °F 87% 29.89 in 8.0 mi SW 6.9 mph - N/A Rain Heavy Rain
11:28 AM 48.2 °F - 44.6 °F 87% 29.89 in 8.0 mi SW 8.1 mph - N/A Rain Rain
11:29 AM 48.2 °F - 44.6 °F 87% 29.89 in 8.0 mi SW 8.1 mph - N/A Rain Heavy Rain
11:32 AM 48.2 °F - 44.6 °F 87% 29.89 in 8.0 mi SW 8.1 mph - N/A Rain Rain
11:43 AM 48.2 °F - 44.6 °F 87% 29.89 in 8.0 mi SSW 8.1 mph - N/A Rain Heavy Rain
11:44 AM 48.2 °F - 44.6 °F 87% 29.90 in 7.0 mi SSW 5.8 mph - N/A Rain Rain
11:46 AM 48.2 °F - 46.4 °F 93% 29.90 in 7.0 mi SW 5.8 mph - N/A Rain Rain
11:47 AM 48.2 °F - 46.4 °F 93% 29.90 in 7.0 mi SW 6.9 mph - N/A Rain Heavy Rain
11:49 AM 48.2 °F - 46.4 °F 93% 29.90 in 6.0 mi SW 5.8 mph - N/A Rain Heavy Rain
11:53 AM 48.2 °F - 44.6 °F 87% 29.90 in 7.0 mi SW 8.1 mph - N/A Rain Heavy Rain
11:54 AM 48.2 °F - 46.4 °F 93% 29.90 in 7.0 mi SW 9.2 mph - N/A Rain Heavy Rain
11:55 AM 48.2 °F - 46.4 °F 93% 29.91 in 8.0 mi SW 9.2 mph - N/A Rain Heavy Rain
12:00 PM 48.2 °F - 46.4 °F 93% 29.91 in 8.0 mi WSW 6.9 mph - N/A Rain Heavy Rain
12:03 PM 48.2 °F - 46.4 °F 93% 29.91 in 8.0 mi SW 8.1 mph - N/A Rain Rain
12:52 PM 48.2 °F - 46.4 °F 93% 29.92 in 6.0 mi West 11.5 mph 18.4 mph N/A Rain Rain
1:00 PM 48.2 °F - 46.4 °F 93% 29.92 in 8.0 mi West 9.2 mph 19.6 mph N/A Rain Rain
1:53 PM 48.2 °F - 46.4 °F 93% 29.95 in 5.0 mi WSW 12.7 mph 18.4 mph N/A Rain Light Rain
2:00 PM 48 °F - 47 °F 93% 29.96 in - SW 11.5 mph - -  
2:00 PM 48.2 °F - 46.4 °F 93% 29.96 in 4.0 mi SW 10.4 mph - N/A Rain Light Rain
2:28 PM 50.0 °F - 46.4 °F 87% 29.97 in 7.0 mi WSW 11.5 mph 20.7 mph N/A Rain Light Rain
2:47 PM 50.0 °F - 46.4 °F 87% 29.99 in 5.0 mi WSW 10.4 mph 20.7 mph N/A Rain Light Rain
2:52 PM 50.0 °F - 46.4 °F 87% 29.99 in 6.0 mi WSW 15.0 mph 21.9 mph N/A Rain Light Rain
3:00 PM 50.0 °F - 46.4 °F 87% 29.99 in 9.0 mi WNW 10.4 mph 21.9 mph N/A Rain Rain
4:00 PM 50.0 °F - 42.8 °F 76% 30.03 in 9.0 mi West 13.8 mph 19.6 mph N/A   Overcast
4:43 PM 50.0 °F - 44.6 °F 82% 30.06 in 9.0 mi WSW 9.2 mph - N/A Rain Light Rain
5:00 PM 50 °F - 45 °F 78% 30.06 in - SW 10.4 mph - -  
5:00 PM 50.0 °F - 42.8 °F 76% 30.06 in 9.0 mi WSW 10.4 mph - N/A Rain Light Rain
5:26 PM 50.0 °F - 44.6 °F 82% 30.07 in 9.0 mi WSW 9.2 mph - N/A   Overcast
6:00 PM 50.0 °F - 46.4 °F 87% 30.08 in 9.0 mi WSW 5.8 mph - N/A   Overcast
7:00 PM 53.6 °F - 42.8 °F 67% 30.09 in 9.0 mi WNW 13.8 mph 24.2 mph N/A   Mostly Cloudy
8:00 PM 51 °F - 43 °F 66% 30.11 in - West 11.5 mph - -  
8:00 PM 51.8 °F - 42.8 °F 71% 30.10 in 9.0 mi West 10.4 mph 23.0 mph N/A   Overcast
9:00 PM 50.0 °F - 42.8 °F 76% 30.12 in 9.0 mi West 9.2 mph 20.7 mph N/A   Overcast
10:00 PM 50.0 °F - 42.8 °F 76% 30.13 in 9.0 mi West 10.4 mph 18.4 mph N/A   Mostly Cloudy
10:47 PM 50.0 °F - 42.8 °F 76% 30.14 in 9.0 mi WNW 10.4 mph 18.4 mph N/A Rain Light Rain
11:00 PM 49 °F - 43 °F 72% 30.14 in - West 11.5 mph - -  
11:00 PM 50.0 °F - 42.8 °F 76% 30.14 in 9.0 mi West 11.5 mph 19.6 mph N/A Rain Light Rain
11:45 PM 46.4 °F 41.9 °F 44.6 °F 93% 30.15 in 5.0 mi WSW 9.2 mph - N/A Rain Light Rain